User: anonymous
Location: Unspecified
(0.0000°N, 0.0000°E)
Time: 17:32:08
(UTC+00:00)
Language:

STSS ATRR (USA 205) - Orbit

View from above orbital plane
View from above orbital plane
View from above satellite
View from above satellite

Ground track
Ground track

The orbit data is extracted from the following two-line orbital elements,

1 34903U 09023A   14254.94920545 0.00000030  00000-0  18080-4 0    04
2 34903  98.9260 351.1126 0006000 192.7315 167.2683 14.06719686    09
Epoch (UTC): 11 September 2014 22:46:51
Eccentricity: 0.0006000
inclination: 98.9260°
perigee height: 866 km
apogee height: 875 km
right ascension of ascending node: 351.1126°
argument of perigee: 192.7315°
revolutions per day: 14.06719686
mean anomaly at epoch: 167.2683°
orbit number at epoch: 0

The dashed part of the orbit path shows where the satellite is in the earth's shadow,  

DLR